date,PM2.5_BAM (ug/m3),PM2.5_T640 (ug/m3),PM2.5_T640adj (ug/m3)
5/15/2018,,,
5/16/2018,6.55,5.37,5.37
5/17/2018,,,
5/18/2018,,7.95,7.95
5/19/2018,,15.54,15.54
5/20/2018,,15.19,15.19
5/21/2018,,15.44,15.44
5/22/2018,,12.20,12.20
5/23/2018,14.00,12.75,12.75
5/24/2018,14.08,13.74,13.74
5/25/2018,18.75,16.67,16.67
5/26/2018,21.63,20.23,20.23
5/27/2018,19.46,18.87,18.87
5/28/2018,15.75,15.03,15.03
5/29/2018,13.88,14.77,14.77
5/30/2018,20.29,16.05,16.05
5/31/2018,18.67,19.17,19.17
6/1/2018,23.83,23.52,23.52
6/2/2018,16.29,17.86,17.86
6/3/2018,16.83,19.62,19.62
6/4/2018,12.57,14.23,14.23
6/5/2018,11.79,12.60,12.60
6/6/2018,12.25,13.14,13.14
6/7/2018,14.00,15.77,15.77
6/8/2018,12.46,13.55,13.55
6/9/2018,12.25,12.47,12.47
6/10/2018,19.92,18.68,18.68
6/11/2018,22.83,21.15,21.15
6/12/2018,22.08,21.15,21.15
6/13/2018,12.08,13.03,13.03
6/14/2018,11.67,12.15,12.15
6/15/2018,4.08,5.60,5.60
6/16/2018,14.54,15.71,15.71
6/17/2018,21.38,21.66,21.66
6/18/2018,16.71,16.08,16.08
6/19/2018,18.42,17.62,17.62
6/20/2018,19.13,19.06,19.06
6/21/2018,21.25,21.01,21.01
6/22/2018,16.42,17.81,17.81
6/23/2018,9.50,9.27,9.27
6/24/2018,10.00,9.45,9.45
6/25/2018,13.92,10.49,10.49
6/26/2018,13.75,11.32,11.32
6/27/2018,10.58,11.18,11.18
6/28/2018,10.79,10.50,10.50
6/29/2018,18.54,16.01,16.01
6/30/2018,16.71,19.86,19.86
7/1/2018,11.79,12.51,12.51
7/2/2018,17.79,16.77,16.77
7/3/2018,22.63,23.38,23.38
7/4/2018,25.17,26.57,26.57
7/5/2018,16.91,16.78,16.78
7/6/2018,17.96,17.30,17.30
7/7/2018,11.75,12.95,12.95
7/8/2018,12.58,14.24,14.24
7/9/2018,15.50,15.27,15.27
7/10/2018,17.75,16.19,16.19
7/11/2018,14.58,15.67,15.67
7/12/2018,27.29,24.37,24.37
7/13/2018,22.13,22.16,22.16
7/14/2018,22.29,22.09,22.09
7/15/2018,19.21,17.77,17.77
7/16/2018,18.58,17.01,17.01
7/17/2018,8.54,7.39,7.39
7/18/2018,14.92,15.91,15.91
7/19/2018,17.04,16.84,16.84
7/20/2018,20.08,17.46,17.46
7/21/2018,15.96,17.00,17.00
7/22/2018,14.46,15.63,15.63
7/23/2018,16.96,15.88,15.88
7/24/2018,18.58,22.37,22.37
7/25/2018,16.33,17.87,17.87
7/26/2018,20.04,18.89,18.89
7/27/2018,15.78,14.36,14.36
7/28/2018,16.42,13.32,13.32
7/29/2018,18.83,18.69,18.69
7/30/2018,18.38,17.39,17.39
7/31/2018,21.21,20.31,20.31
8/1/2018,20.42,19.82,19.82
8/2/2018,28.54,25.20,25.20
8/3/2018,23.21,21.97,21.97
8/4/2018,22.54,23.13,23.13
8/5/2018,12.54,15.46,15.46
8/6/2018,17.54,18.28,18.28
8/7/2018,27.96,27.73,27.73
8/8/2018,25.13,25.53,25.53
8/9/2018,28.46,28.82,28.82
8/10/2018,23.04,25.26,25.26
8/11/2018,37.08,35.80,35.80
8/12/2018,30.38,30.90,30.90
8/13/2018,17.75,19.83,19.83
8/14/2018,14.50,15.36,15.36
8/15/2018,15.71,14.68,14.68
8/16/2018,18.29,19.23,19.23
8/17/2018,16.13,17.85,17.85
8/18/2018,22.58,22.97,22.97
8/19/2018,24.79,23.77,23.77
8/20/2018,18.67,18.75,18.75
8/21/2018,23.38,22.59,22.59
8/22/2018,21.46,20.57,20.57
8/23/2018,14.75,17.06,17.06
8/24/2018,12.63,14.41,14.41
8/25/2018,13.71,16.70,16.70
8/26/2018,9.42,12.08,12.08
8/27/2018,7.83,8.79,8.79
8/28/2018,18.25,17.16,17.16
8/29/2018,25.21,23.70,23.70
8/30/2018,21.46,21.59,21.59
8/31/2018,27.83,27.63,27.63
9/1/2018,22.92,21.69,21.69
9/2/2018,19.83,18.78,18.78
9/3/2018,15.25,14.44,14.44
9/4/2018,8.38,8.63,8.63
9/5/2018,10.50,9.70,9.70
9/6/2018,19.13,16.72,16.72
9/7/2018,17.25,17.03,17.03
9/8/2018,16.29,17.39,17.39
9/9/2018,19.63,21.21,21.21
9/10/2018,16.42,15.27,15.27
9/11/2018,15.63,15.54,15.54
9/12/2018,18.67,16.66,16.66
9/13/2018,20.25,18.34,18.34
9/14/2018,14.58,15.03,15.03
9/15/2018,24.58,23.65,23.65
9/16/2018,15.58,16.40,16.40
9/17/2018,13.38,13.42,13.42
9/18/2018,14.29,15.81,15.81
9/19/2018,16.50,17.17,17.17
9/20/2018,22.13,23.28,23.28
9/21/2018,27.63,29.30,29.30
9/22/2018,25.17,27.59,27.59
9/23/2018,20.08,21.30,21.30
9/24/2018,12.38,13.16,13.16
9/25/2018,9.25,11.04,11.04
9/26/2018,8.67,9.54,9.54
9/27/2018,21.33,24.94,24.94
9/28/2018,24.29,27.82,27.82
9/29/2018,24.33,32.74,32.74
9/30/2018,10.25,12.59,12.59
10/1/2018,19.81,26.55,26.55
10/2/2018,21.04,27.24,27.24
10/3/2018,26.96,35.97,35.97
10/4/2018,18.42,22.78,22.78
10/5/2018,42.11,43.46,43.37
10/6/2018,36.00,38.47,38.47
10/7/2018,13.04,13.63,13.63
10/8/2018,22.00,21.10,21.10
10/9/2018,24.63,25.94,25.94
10/10/2018,22.75,28.89,28.89
10/11/2018,30.00,33.15,33.15
10/12/2018,34.83,36.18,36.18
10/13/2018,33.92,38.00,38.00
10/14/2018,37.96,39.86,39.86
10/15/2018,36.96,32.41,32.41
10/16/2018,36.71,32.85,32.85
10/17/2018,38.13,33.00,33.00
10/18/2018,43.96,37.31,37.31
10/19/2018,60.63,54.38,54.38
10/20/2018,43.17,39.33,39.33
10/21/2018,31.75,28.62,28.62
10/22/2018,30.00,23.92,23.92
10/23/2018,44.37,32.92,32.92
10/24/2018,59.33,44.35,44.14
10/25/2018,15.79,12.27,12.27
10/26/2018,39.83,28.71,28.71
10/27/2018,20.13,14.47,14.47
10/28/2018,5.13,3.57,3.57
10/29/2018,8.00,5.92,5.92
10/30/2018,14.38,8.65,8.65
10/31/2018,23.38,16.96,16.96
11/1/2018,31.54,19.45,19.45
11/2/2018,30.13,18.50,18.50
11/3/2018,29.46,26.51,26.51
11/4/2018,60.50,47.26,47.05
11/5/2018,88.44,60.18,59.53
11/6/2018,,25.94,25.94
11/7/2018,46.29,37.36,37.36
11/8/2018,34.83,29.66,29.66
11/9/2018,86.58,45.39,45.39
11/10/2018,55.92,45.29,45.29
11/11/2018,42.54,35.15,35.15
11/12/2018,50.46,41.50,41.50
11/13/2018,77.96,65.66,62.79
11/14/2018,56.00,48.03,47.64
11/15/2018,42.83,36.20,36.20
11/16/2018,19.58,16.41,16.41
11/17/2018,11.17,10.11,10.11
11/18/2018,24.46,24.73,24.73
11/19/2018,40.71,37.03,37.03
11/20/2018,64.75,51.00,50.41
11/21/2018,62.42,43.81,43.81
11/22/2018,62.75,42.26,42.26
11/23/2018,46.92,35.57,34.67
11/24/2018,97.17,70.10,64.93
11/25/2018,112.83,89.35,79.28
11/26/2018,35.67,23.89,23.89
11/27/2018,31.63,21.33,21.33
11/28/2018,21.46,15.59,15.59
11/29/2018,18.58,13.01,13.01
11/30/2018,33.55,33.37,32.09
12/1/2018,155.88,194.39,160.01
12/2/2018,245.63,312.28,243.72
12/3/2018,269.54,340.66,263.87
12/4/2018,238.38,299.75,234.82
12/5/2018,42.92,50.39,47.53
12/6/2018,91.25,109.69,96.34
12/7/2018,180.46,234.91,188.78
12/8/2018,169.21,246.45,194.90
12/9/2018,48.04,73.84,68.08
12/10/2018,47.96,83.34,80.01
12/11/2018,49.08,67.93,65.40
12/12/2018,66.42,87.67,82.60
12/13/2018,83.33,131.16,115.14
12/14/2018,76.50,143.49,121.97
12/15/2018,34.58,49.39,49.39
12/16/2018,37.96,53.90,52.41
12/17/2018,122.96,197.17,161.99
12/18/2018,57.42,98.52,91.19
12/19/2018,,131.63,112.54
12/20/2018,,383.50,294.29
12/21/2018,,433.82,330.01
12/22/2018,78.88,92.75,82.89
12/23/2018,111.21,144.59,124.66
12/24/2018,38.50,46.79,44.87
12/25/2018,16.88,19.59,19.59
12/26/2018,41.63,49.04,47.60
12/27/2018,173.78,218.87,177.26
12/28/2018,283.83,346.91,268.31
12/29/2018,387.79,469.18,355.12
12/30/2018,248.96,311.08,242.87
12/31/2018,32.00,37.20,37.20
1/1/2019,29.88,33.64,33.64
1/2/2019,69.08,83.66,78.82
1/3/2019,30.58,29.97,29.19
1/4/2019,59.96,68.70,65.67
1/5/2019,90.67,103.65,90.73
1/6/2019,85.17,104.54,90.04
1/7/2019,26.96,34.37,33.46
1/8/2019,161.71,205.28,165.30
1/9/2019,245.96,346.63,268.10
1/10/2019,38.96,55.83,52.02
1/11/2019,37.25,48.78,48.59
1/12/2019,,119.57,102.13
1/13/2019,,320.82,249.78
1/14/2019,,275.96,217.93
1/15/2019,,52.78,50.59
1/16/2019,,185.65,152.87
1/17/2019,,131.12,111.68
1/18/2019,,39.28,37.11
1/19/2019,,96.04,88.23
1/20/2019,,153.32,130.84
1/21/2019,,106.28,97.49
1/22/2019,,73.59,71.38
1/23/2019,,118.75,104.78
1/24/2019,,62.47,59.07
1/25/2019,,36.32,36.32
1/26/2019,,57.44,55.06
1/27/2019,,179.77,147.39
1/28/2019,,51.88,46.28
1/29/2019,58.04,65.26,62.80
1/30/2019,86.00,100.20,89.57
1/31/2019,131.17,151.15,129.32
2/1/2019,7.67,8.29,8.16
2/2/2019,7.92,8.39,8.39
2/3/2019,25.38,26.55,25.86
2/4/2019,62.08,70.98,69.27
2/5/2019,56.13,60.93,60.56
2/6/2019,36.71,40.03,39.68
2/7/2019,50.09,57.69,55.32
2/8/2019,97.79,107.76,97.75
2/9/2019,67.21,74.95,71.36
2/10/2019,65.88,82.80,74.54
2/11/2019,,22.00,22.00
2/12/2019,,25.59,25.53
2/13/2019,,22.49,22.49
2/14/2019,,150.82,125.84
2/15/2019,,118.39,101.69
2/16/2019,,60.73,58.89
2/17/2019,,93.44,87.42
2/18/2019,,102.84,94.94
2/19/2019,,89.02,82.91
2/20/2019,,79.11,75.13
2/21/2019,67.17,78.29,75.14
2/22/2019,61.38,74.54,70.09
2/23/2019,10.54,10.99,10.99
2/24/2019,20.83,20.53,20.53
2/25/2019,25.46,26.51,26.51
2/26/2019,84.88,100.45,90.06
2/27/2019,44.63,53.93,49.68
2/28/2019,64.43,77.16,73.61
3/1/2019,55.21,75.36,72.11
3/2/2019,31.63,50.74,49.69
3/3/2019,33.46,43.06,43.06
3/4/2019,24.88,29.56,29.56
3/5/2019,25.08,32.48,32.27
3/6/2019,23.32,28.77,28.77
3/7/2019,10.25,10.28,10.28
3/8/2019,10.74,12.43,12.43
3/9/2019,16.29,16.69,16.69
3/10/2019,14.04,15.73,15.73
3/11/2019,24.04,26.08,26.08
3/12/2019,23.04,27.15,27.15
3/13/2019,31.17,34.85,34.85
3/14/2019,41.63,49.23,48.28
3/15/2019,21.83,23.76,23.76
3/16/2019,27.42,30.85,30.85
3/17/2019,19.42,22.98,22.98
3/18/2019,13.50,14.16,14.16
3/19/2019,31.96,35.94,35.94
3/20/2019,43.50,48.61,48.08
3/21/2019,38.83,44.11,43.58
3/22/2019,34.67,37.04,37.04
3/23/2019,28.00,31.84,31.84
3/24/2019,27.79,32.82,32.82
3/25/2019,25.75,34.84,34.84
3/26/2019,53.70,58.65,53.25
3/27/2019,56.29,68.01,62.91
3/28/2019,18.63,20.08,20.08
3/29/2019,27.54,30.08,30.08
3/30/2019,26.96,30.86,30.86
3/31/2019,33.21,37.03,37.03
4/1/2019,28.58,29.74,29.74
4/2/2019,40.67,46.14,46.14
4/3/2019,33.96,48.63,48.49
4/4/2019,11.13,19.87,19.87
4/5/2019,12.92,7.81,7.81
4/6/2019,24.83,27.96,27.96
4/7/2019,13.88,16.44,16.44
4/8/2019,24.58,22.01,22.01
4/9/2019,37.88,42.79,42.47
4/10/2019,27.57,38.84,38.84
4/11/2019,17.04,19.20,19.20
4/12/2019,11.46,12.68,12.68
4/13/2019,24.33,23.61,23.61
4/14/2019,27.58,26.14,26.14
4/15/2019,30.38,33.16,33.16
4/16/2019,26.83,33.41,33.41
4/17/2019,23.83,26.28,26.28
4/18/2019,22.17,24.88,24.88
4/19/2019,24.17,27.11,27.11
4/20/2019,18.46,19.98,19.98
4/21/2019,20.42,22.66,22.66
4/22/2019,13.88,18.47,18.47
4/23/2019,11.04,12.23,12.23
4/24/2019,27.61,20.39,20.39
4/25/2019,28.63,29.63,29.63
4/26/2019,27.42,26.62,26.62
4/27/2019,12.54,14.73,14.73
4/28/2019,9.92,9.72,9.72
4/29/2019,11.79,14.41,14.41
4/30/2019,18.25,14.66,14.66
5/1/2019,22.75,27.16,27.16
5/2/2019,15.96,22.82,22.82
5/3/2019,11.33,12.10,12.10
5/4/2019,11.08,11.30,11.30
5/5/2019,10.29,14.27,14.27
5/6/2019,10.29,10.66,10.66
5/7/2019,13.13,13.94,13.94
5/8/2019,13.83,16.98,16.98
5/9/2019,13.58,13.79,13.79
5/10/2019,21.23,11.99,11.99
5/11/2019,9.46,8.44,8.44
5/12/2019,13.29,13.76,13.76
5/13/2019,25.33,26.15,26.15
5/14/2019,7.58,8.36,8.36
5/15/2019,20.58,24.02,24.02
5/16/2019,18.83,21.76,21.76
5/17/2019,17.46,18.15,18.15
5/18/2019,10.08,11.53,11.53
5/19/2019,13.25,15.18,15.18
5/20/2019,7.71,7.92,7.92
5/21/2019,5.00,5.23,5.23
5/22/2019,12.61,11.25,11.25
5/23/2019,10.79,11.28,11.28
5/24/2019,11.50,11.12,11.12
5/25/2019,14.58,15.30,15.30
5/26/2019,10.08,11.00,11.00
5/27/2019,8.42,10.31,10.31
5/28/2019,6.54,7.27,7.27
5/29/2019,9.83,10.58,10.58
5/30/2019,10.46,12.36,12.36
5/31/2019,11.75,13.65,13.65
6/1/2019,15.79,19.15,19.15
6/2/2019,16.29,18.52,18.52
6/3/2019,23.38,24.44,24.44
6/4/2019,19.71,21.37,21.37
6/5/2019,11.30,13.79,13.79
6/6/2019,9.00,11.88,11.88
6/7/2019,12.83,14.41,14.41
6/8/2019,16.88,17.63,17.63
6/9/2019,21.71,22.58,22.58
6/10/2019,17.21,18.56,18.56
6/11/2019,15.71,17.15,17.15
6/12/2019,14.83,16.82,16.82
6/13/2019,20.58,22.24,22.24
6/14/2019,23.75,21.97,21.97
6/15/2019,23.33,20.48,20.48
6/16/2019,27.71,27.66,27.66
6/17/2019,16.42,18.26,18.26
6/18/2019,16.43,16.98,16.98
6/19/2019,13.91,14.79,14.79
6/20/2019,13.33,13.30,13.30
6/21/2019,14.71,14.85,14.85
6/22/2019,21.33,22.46,22.46
6/23/2019,16.00,17.54,17.54
6/24/2019,14.33,14.87,14.87
6/25/2019,18.08,18.70,18.70
6/26/2019,18.54,18.33,18.33
6/27/2019,21.08,20.69,20.69
6/28/2019,13.21,13.30,13.30
6/29/2019,11.38,10.51,10.51
6/30/2019,11.00,11.24,11.24
7/1/2019,17.67,16.62,16.62
7/2/2019,25.74,22.94,22.94
7/3/2019,25.67,21.82,21.82
7/4/2019,20.04,19.61,19.61
7/5/2019,21.38,19.69,19.69
7/6/2019,21.33,19.86,19.86
7/7/2019,14.79,15.97,15.97
7/8/2019,8.83,9.05,9.05
7/9/2019,19.21,16.81,16.81
7/10/2019,10.00,9.39,9.39
7/11/2019,13.58,12.19,12.19
7/12/2019,13.96,11.33,11.33
7/13/2019,15.17,13.80,13.80
7/14/2019,11.46,11.71,11.71
7/15/2019,15.46,14.37,14.37
7/16/2019,9.74,11.86,11.86
7/17/2019,18.04,15.73,15.73
7/18/2019,23.50,19.32,19.32
7/19/2019,19.04,18.67,18.67
7/20/2019,20.50,20.50,20.50
7/21/2019,22.42,23.79,23.79
7/22/2019,20.38,20.09,20.09
7/23/2019,13.54,12.87,12.87
7/24/2019,14.26,14.27,14.27
7/25/2019,14.68,13.54,13.54
7/26/2019,15.78,14.45,14.45
7/27/2019,12.08,13.76,13.76
7/28/2019,10.96,11.49,11.49
7/29/2019,9.33,9.28,9.28
7/30/2019,20.71,17.79,17.79
7/31/2019,21.88,21.23,21.23
8/1/2019,22.29,22.30,22.30
8/2/2019,17.58,19.55,19.55
8/3/2019,12.25,11.58,11.58
8/4/2019,12.25,12.85,12.85
8/5/2019,19.96,17.18,17.18
8/6/2019,18.83,17.14,17.14
8/7/2019,15.71,18.09,18.09
8/8/2019,18.96,18.78,18.78
8/9/2019,27.04,24.16,24.16
8/10/2019,29.79,32.31,32.31
8/11/2019,40.67,39.13,39.13
8/12/2019,33.63,35.43,35.31
8/13/2019,34.39,33.95,33.95
8/14/2019,11.67,11.41,11.41
8/15/2019,15.08,13.07,13.07
8/16/2019,18.33,14.47,14.47
8/17/2019,17.63,15.21,15.21
8/18/2019,18.96,16.71,16.71
8/19/2019,14.75,13.35,13.35
8/20/2019,11.33,10.29,10.29
8/21/2019,17.50,15.29,15.29
8/22/2019,23.54,19.87,19.87
8/23/2019,32.17,24.78,24.78
8/24/2019,29.58,26.67,26.67
8/25/2019,18.25,17.94,17.94
8/26/2019,17.04,16.69,16.69
8/27/2019,15.87,16.69,16.69
8/28/2019,17.04,17.21,17.21
8/29/2019,18.50,18.30,18.30
8/30/2019,21.25,20.35,20.35
8/31/2019,21.25,21.73,21.73
